• Processing (Info)

  • MPEC 2022-U354 : 2022 UR14

    The following Minor Planet Electronic Circular may be linked-to from your own Web pages, but must not otherwise be redistributed electronically.

    A form allowing access to any MPEC is at the bottom of this page.


    Read MPEC 2022-U353 Read MPEC 2022-U355


    M.P.E.C. 2022-U354                             Issued 2022 October 29, 12:56 UT
    
         The Minor Planet Electronic Circulars contain information on unusual
             minor planets and routine data on comets.  They are published
        on behalf of Division F of the International Astronomical Union by the
              Minor Planet Center, Smithsonian Astrophysical Observatory,
                              Cambridge, MA 02138, U.S.A.
    
                 Prepared using the Tamkin Foundation Computer Network
    
                                  MPC@CFA.HARVARD.EDU
                URL https://www.minorplanetcenter.net/    ISSN 1523-6714
    
                                    2022 UR14                                
    
    
    Observations:
         K22U14R* C2022 10 26.33837403 36 11.959+17 02 38.11         20.73GVEU354G96
         K22U14R  C2022 10 26.34885203 36 14.209+17 04 25.93         20.72GVEU354G96
         K22U14R  C2022 10 26.35409703 36 15.322+17 05 20.47         20.72GVEU354G96
         K22U14R KC2022 10 26.42292403 36 29.988+17 16 59.92         20.92GVEU354I52
         K22U14R KC2022 10 26.42420003 36 30.258+17 17 12.91         21.12GVEU354I52
         K22U14R KC2022 10 26.42548803 36 30.550+17 17 26.09         20.91GVEU354I52
         K22U14R KC2022 10 26.42676703 36 30.848+17 17 38.40         20.71GVEU354I52
         K22U14R pC2022 10 27.02603703 39 11.60 +18 51 49.9          20.9 GVEU354L01
         K22U14R KC2022 10 27.02750703 39 11.93 +18 52 02.8          21.0 GVEU354L01
         K22U14R KC2022 10 27.02918803 39 12.20 +18 52 17.8          21.0 GVEU354L01
         K22U14R IC2022 10 27.03192103 39 12.72 +18 52 42.8          21.2 GVEU354L01
         K22U14R IC2022 10 27.03444403 39 13.25 +18 53 04.3          21.3 GVEU354L01
         K22U14R KC2022 10 27.24068103 40 10.980+19 23 17.70         21.26GVEU354I52
         K22U14R KC2022 10 27.24202903 40 11.260+19 23 28.70         21.21GVEU354I52
         K22U14R KC2022 10 27.24337603 40 11.520+19 23 40.50               VEU354I52
         K22U14R KC2022 10 29.29588403 46 46.80 +23 21 38.2          22.4 VuEU354H21
         K22U14R KC2022 10 29.29936403 46 47.21 +23 21 58.2          22.3 VuEU354H21
         K22U14R KC2022 10 29.30284803 46 47.59 +23 22 17.7          22.4 VuEU354H21
    
    Observer details:
    G96 Mt. Lemmon Survey.  Observer D. Rankin.  Measurers E. J. Christensen, D.
        Fay, J. B. Fazekas, D. C. Fuls, A. R. Gibbs, A. D. Grauer, H. Groeller, J.
        K. Hogan, R. A. Kowalski, S. M. Larson, G. J. Leonard, D. Rankin, R. L.
        Seaman, A. Serrano, F. C. Shelly, K. W. Wierzchos.  1.5-m reflector + 10K
        CCD.
    H21 Astronomical Research Observatory, Westfield.  Observer R. Holmes.
        Measurers T. Linder, R. Holmes, L. Horn.  1.3-m f/4.0 astrograph + CCD.
    I52 Steward Observatory, Mt. Lemmon Station.  Observer G. J. Leonard.
        Measurers E. J. Christensen, D. Fay, J. B. Fazekas, D. C. Fuls, A. R.
        Gibbs, A. D. Grauer, H. Groeller, J. K. Hogan, R. A. Kowalski, S. M.
        Larson, G. J. Leonard, D. Rankin, R. L. Seaman, A. Serrano, F. C. Shelly,
        K. W. Wierzchos.  1.0-m prime focus + CCD.
    L01 Visnjan Observatory, Tican.  Observer K. Korlevic.  1.0-m f/2.9 reflector
        + CCD.
    
    Orbital elements:
    2022 UR14                                                Earth MOID = 0.0201 AU
    Epoch 2022 Aug. 9.0 TT = JDT 2459800.5                  Veres                   
    M 346.41480              (2000.0)            P               Q                  
    n   0.25935645     Peri.  326.65861     +0.99840142     -0.02358361             
    a   2.4352190      Node    34.80364     +0.04476810     +0.88472388             
    e   0.5983606      Incl.    5.16326     -0.03450240     +0.46551849             
    P   3.80           H   26.72          G   0.15           U   8                  
    Residuals in seconds of arc
    221026 G96  0.0   0.1+    221026 I52  0.4+  0.0     221027 I52  0.2-  0.4+
    221026 G96  0.1+  0.5-    221027 L01  0.4-  0.1-    221027 I52  0.1+  0.3-
    221026 G96  0.0   0.1-    221027 L01  0.3+  0.3-    221027 I52  0.2+  0.2-
    221026 I52  0.1-  0.0     221027 L01  0.5-  0.2-    221029 H21  0.1-  0.1-
    221026 I52  0.2-  0.2+    221027 L01  0.6-  0.6+    221029 H21  0.2+  0.2+
    221026 I52  0.0   0.5+    221027 L01  0.0   0.2-    221029 H21  0.0   0.1-
    
    Ephemeris:
    2022 UR14                a,e,i = 2.44, 0.60, 5                   q = 0.9781
    Date    TT    R. A. (2000) Decl.     Delta      r    Elong.  Phase     V
    2022 09 29    16 56 36.7 -49 11 00   0.1140  0.9783    74.8    98.7    25.5
    ...
    2022 10 14    19 36 18.3 -66 34 51   0.03531 0.9951    84.8    93.2    22.8
    ...
    2022 10 22    03 00 40.5 -05 23 56   0.02700 1.0200   155.1    24.2    20.1
    ...
    2022 10 28    03 42 50.8 +21 03 22   0.05590 1.0451   155.9    22.8    21.6
    2022 10 29    03 45 57.5 +22 53 25   0.06137 1.0497   155.7    22.9    21.9
    2022 10 30    03 48 33.5 +24 24 50   0.06692 1.0545   155.6    22.9    22.1
    ...
    2022 11 05    03 57 32.8 +29 49 12   0.1016  1.0859   157.0    20.9    23.0
    ...
    2022 11 13    04 01 06.5 +32 39 40   0.1510  1.1339   161.4    16.2    23.8
    ...
    2022 11 28    04 00 38.4 +33 46 14   0.2562  1.2378   167.1    10.3    24.9
    
    M. P. C. Staff               (C) Copyright 2022 MPC           M.P.E.C. 2022-U354
    


    Read MPEC 2022-U353 Read MPEC 2022-U355


    MPEC number:

    Enter an MPEC number in one of the following forms:

    • 1997-B01 (the full form)
    • J97B01 (the packed version of the full form)
    • B01 (the abbreviated form)